John P. Tully — CG2958 — position and weather

sailwx.info

Track history (hours):
 
Tides and Currents Weather Stations Pressure Air Temp Water Temp Dewpoint Dewpoint Depression Visibility Wind Speed Wind Dir Waves Ship Positions

Oceanographic research ship John P. Tully (Canada)

Detailed information on ship capabilities available from University of Delaware's Ocean Information Center.

Last reported at 2017-Mar-24 11:00 UTC. Time now 2017-Mar-24 12:17 UTC.
Position N 53°12' W 129°36'.

Length 68.9 m; beam 14.5 m; draft 4.5 m.

MMSI: 316114000.

Wind from 080 at 25 knots

Barometer 999.9 mb
Air temperature 5.4 ° C
Dewpoint 3.3 ° C

Date/timePositionNaut miles runAvg speedWind from/ knotsBaromVisibWave heightAir tempDewpointWater temp
2017-Mar-24 11:00N 53°12' W 129°36'9 9.4 080 / 25999.9 5.4 3.3
2017-Mar-24 10:00N 53°18' W 129°48'7 7.0 090 / 221000.6 5.1 3.3
2017-Mar-24 09:00N 53°24' W 129°54'9 9.3 110 / 151001.4 4.9 2.8
2017-Mar-24 08:00N 53°30' W 130°06'9 9.3 130 / 141001.5 4.7 2.9
2017-Mar-24 07:00N 53°36' W 130°18'9 9.3 110 / 131001.7 4.6 3.5
2017-Mar-24 06:00N 53°42' W 130°30'9 9.3 070 / 141002.0 5.1 3.4
2017-Mar-24 05:00N 53°48' W 130°42'9 9.3 060 / 151003.5 4.4 2.9
2017-Mar-24 04:00N 53°54' W 130°54'9 9.3 060 / 151004.3 4.3 2.3
2017-Mar-24 03:00N 54°00' W 131°06'7 7.0 070 / 181005.1 5.4 2.5
2017-Mar-24 02:00N 54°06' W 131°12'9 9.2 100 / 201005.4 5.9 1.8
2017-Mar-24 01:00N 54°12' W 131°24'1212.1 100 / 121006.6 6.0 2.4
2017-Mar-24 00:00N 54°18' W 131°42'7 7.0 110 / 151007.2 5.3 3.1
2017-Mar-23 23:00N 54°18' W 131°54'1110.5 130 / 171007.4 5.7 2.8
2017-Mar-23 22:00N 54°18' W 132°12'1110.5 120 / 151007.7 5.8 2.1
2017-Mar-23 21:00N 54°18' W 132°30'9 9.2 120 / 131008.1 5.3 1.4
2017-Mar-23 20:00N 54°24' W 132°42'7 7.0 140 / 161007.9 4.7 1.1
2017-Mar-23 19:00N 54°24' W 132°54'1413.9 130 / 111008.2 5.2 1.5
2017-Mar-23 18:00N 54°12' W 132°42'7 7.0 140 / 101008.0 4.4 1.4
2017-Mar-23 17:00N 54°12' W 132°30'1110.5 170 / 71007.9 3.1 0.3
2017-Mar-23 16:00N 54°12' W 132°12'1110.5 180 / 91007.5 2.4 0.7
2017-Mar-23 15:00N 54°12' W 131°54'7 7.0 210 / 71007.3 2.5 0.6
2017-Mar-23 14:00N 54°06' W 131°48'0 0.0 200 / 71007.0 1.8 1.1
2017-Mar-23 13:00N 54°06' W 131°48'0 0.0 200 / 61006.3 2.6 2.0
2017-Mar-23 12:00N 54°06' W 131°48'0 0.0 140 / 31005.8 2.3 1.6
2017-Mar-23 11:00N 54°06' W 131°48'0 0.0 130 / 71005.3 2.6 1.5
2017-Mar-23 10:00N 54°06' W 131°48'0 0.0 140 / 91004.8 3.0 1.9
2017-Mar-23 09:00N 54°06' W 131°48'0 0.0 130 / 61004.4 3.7 1.9
2017-Mar-23 08:00N 54°06' W 131°48'0 0.0 130 / 51004.0 3.6 1.6
2017-Mar-23 07:00N 54°06' W 131°48'0 0.0 170 / 81003.6 3.4 0.6
2017-Mar-23 06:00N 54°06' W 131°48'0 0.0 160 / 71003.3 3.6 1.2
2017-Mar-23 05:00N 54°06' W 131°48'0 0.0 140 / 101002.9 3.2 1.2
2017-Mar-23 04:00N 54°06' W 131°48'0 0.0 160 / 141002.4 3.5 1.2
2017-Mar-23 03:00N 54°06' W 131°48'1312.5 170 / 151001.4 4.6 1.4
2017-Mar-23 02:00N 54°18' W 131°42'7 6.9 190 / 91000.8 3.9 2.1
2017-Mar-23 01:00N 54°24' W 131°36'0 0.0 220 / 161000.2 4.2 2.5
2017-Mar-23 00:00N 54°24' W 131°36'7 6.9 140 / 161000.2 5.4 3.6
2017-Mar-22 23:00N 54°18' W 131°30'0 0.0 160 / 101000.3 4.9 2.7
2017-Mar-22 22:00N 54°18' W 131°30'0 0.0 140 / 9999.8 5.3 3.8
2017-Mar-22 21:00N 54°18' W 131°30'4 3.5 150 / 71000.0 5.1 2.9
2017-Mar-22 20:00N 54°18' W 131°24'4 3.5 160 / 8999.4 4.1 2.6
2017-Mar-22 19:00N 54°18' W 131°18'7 6.9 160 / 7999.2 3.8 2.4
2017-Mar-22 18:00N 54°12' W 131°12'9 9.2 100 / 5998.9 3.1 1.8
2017-Mar-22 17:00N 54°06' W 131°00'1413.9 280 / 1998.7 3.1 1.9
2017-Mar-22 16:00N 53°54' W 130°48'4 3.5 340 / 2998.4 2.6 1.9
2017-Mar-22 15:00N 53°54' W 130°42'4 3.5 290 / 4998.3 3.0 1.9
2017-Mar-22 14:00N 53°54' W 130°48'4 3.5 320 / 6998.2 3.1 1.8
2017-Mar-22 13:00N 53°54' W 130°54'6 6.0 310 / 2998.2 3.3 1.9
2017-Mar-22 12:00N 53°48' W 130°54'7 7.0 020 / 2998.5 3.7 2.6
2017-Mar-22 11:00N 53°42' W 130°48'6 6.0 070 / 5998.9 4.1 3.2
2017-Mar-22 10:00N 53°36' W 130°48'7 7.0 080 / 5999.3 4.0 3.1
2017-Mar-22 09:00N 53°30' W 130°42'1212.0 050 / 5999.3 3.8 2.9
2017-Mar-22 08:00N 53°18' W 130°42'7 7.0 050 / 7999.6 3.9 2.8
2017-Mar-22 07:00N 53°12' W 130°36'7 7.0 050 / 61000.0 4.2 2.4
2017-Mar-22 06:00N 53°06' W 130°30'1212.0 060 / 71000.2 4.3 2.7
2017-Mar-22 05:00N 52°54' W 130°30'7 7.0 050 / 91000.0 4.4 2.8
2017-Mar-22 04:00N 52°48' W 130°36'7 7.0 060 / 71000.6 4.4 2.8
2017-Mar-22 03:00N 52°42' W 130°42'7 7.0 040 / 81000.7 4.3 2.2
2017-Mar-22 02:00N 52°36' W 130°48'1312.5 050 / 101000.8 4.3 2.5
2017-Mar-22 01:00N 52°24' W 130°54'1111.0 060 / 81001.5 4.3 2.4
2017-Mar-22 00:00N 52°24' W 131°12'6 6.0 110 / 81002.2 5.2 2.7
2017-Mar-21 23:00N 52°18' W 131°12'0 0.0 360 / 81002.4 5.4 3.3
2017-Mar-21 22:00N 52°18' W 131°12'7 7.3 360 / 71003.0 5.3 3.0
2017-Mar-21 21:00N 52°18' W 131°00'7 7.0 360 / 131002.9 5.2 3.5
2017-Mar-21 20:00N 52°12' W 130°54'6 6.0 350 / 161002.7 5.2 3.5
2017-Mar-21 19:00N 52°06' W 130°54'6 6.0 360 / 201003.1 5.1 3.4
2017-Mar-21 18:00N 52°12' W 130°54'0 0.0 010 / 171003.9 5.2 3.4
2017-Mar-21 17:00N 52°12' W 130°54'7 7.0 350 / 191004.3 5.4 3.8
2017-Mar-21 16:00N 52°06' W 130°48'0 0.0 350 / 221004.0 5.5 3.8
2017-Mar-21 15:00N 52°06' W 130°48'0 0.0 350 / 201005.3 5.6 4.1
2017-Mar-21 14:00N 52°06' W 130°48'0 0.0 350 / 211005.9 5.5 3.9
2017-Mar-21 13:00N 52°06' W 130°48'0 0.0 360 / 201007.1 5.5 4.1
2017-Mar-21 12:00N 52°06' W 130°48'7 7.0 350 / 191007.9 5.6 4.2
2017-Mar-21 11:00N 52°12' W 130°42'4 3.7 360 / 161009.0 6.3 3.9
2017-Mar-21 10:00N 52°12' W 130°36'7 7.0 360 / 131010.2 6.4 3.7
2017-Mar-21 09:00N 52°18' W 130°30'0 0.0 360 / 131010.8 6.5 3.8
2017-Mar-21 08:00N 52°18' W 130°30'0 0.0 360 / 141011.4 6.3 2.7
2017-Mar-21 07:00N 52°18' W 130°30'0 0.0 350 / 171011.9 6.1 2.1
2017-Mar-21 06:00N 52°18' W 130°30'0 0.0 350 / 171012.8 6.0 1.1
2017-Mar-21 05:00N 52°18' W 130°30'0 0.0 350 / 161013.1 5.9 1.6
2017-Mar-21 04:00N 52°18' W 130°30'6 6.0 350 / 161013.7 5.8 1.1
2017-Mar-21 03:00N 52°12' W 130°30'7 7.0 360 / 151013.7 5.8 1.2
2017-Mar-21 02:00N 52°06' W 130°36'1212.0 360 / 161014.1 5.7 1.1
2017-Mar-21 01:00N 51°54' W 130°36'0 0.0 010 / 191014.3 5.7 1.6
2017-Mar-21 00:00N 51°54' W 130°36'4 3.7 010 / 171015.9 6.2 2.0
2017-Mar-20 23:00N 51°54' W 130°42'10 9.5 020 / 201015.9 5.5 1.5
2017-Mar-20 22:00N 51°48' W 130°54'7 7.1 020 / 191017.6 5.8 2.0
2017-Mar-20 21:00N 51°54' W 130°48'6 6.0 020 / 151018.8 5.6 1.6
2017-Mar-20 20:00N 52°00' W 130°48'1212.0 010 / 141019.9 5.5 0.9
2017-Mar-20 19:00N 52°12' W 130°48'7 7.0 010 / 121020.7 5.3 1.2
2017-Mar-20 18:00N 52°18' W 130°54'1414.1 030 / 121021.3 5.1 1.1
2017-Mar-20 17:00N 52°30' W 131°06'7 7.0 030 / 111022.1 4.9 1.8
2017-Mar-20 16:00N 52°36' W 131°12'7 7.0 060 / 111022.7 5.1 0.8
2017-Mar-20 15:00N 52°42' W 131°18'4 3.6 050 / 101023.5 4.2 1.9
2017-Mar-20 14:00N 52°42' W 131°12'7 7.3 350 / 111023.9 4.8 2.9
2017-Mar-20 13:00N 52°42' W 131°00'4 3.6 080 / 21024.6 5.3 0.7
2017-Mar-20 12:00N 52°42' W 130°54'7 7.3 130 / 41025.3 5.4 0.4
2017-Mar-20 11:00N 52°42' W 130°42'7 7.0 120 / 71025.9 5.3 1.3
2017-Mar-20 10:00N 52°48' W 130°36'6 6.0 110 / 111026.1 5.2 1.1
2017-Mar-20 09:00N 52°54' W 130°36'4 3.6 150 / 81026.4 5.6 0.4
2017-Mar-20 08:00N 52°54' W 130°30'1212.0 160 / 91026.6 5.6 0.8
2017-Mar-20 07:00N 53°06' W 130°30'4 3.6 180 / 121026.7 5.9 1.6
2017-Mar-20 06:00N 53°06' W 130°36'6 6.0 160 / 81026.6 5.9 1.4
2017-Mar-20 05:00N 53°12' W 130°36'7 7.0 170 / 81026.4 5.8 1.4
2017-Mar-20 04:00N 53°18' W 130°42'6 6.0 210 / 71026.2 5.7 1.6
2017-Mar-20 03:00N 53°24' W 130°42'1212.0 240 / 81025.8 5.2 2.4
2017-Mar-20 02:00N 53°36' W 130°42'7 7.1 140 / 141024.8 5.5 1.6
2017-Mar-20 01:00N 53°36' W 130°54'7 7.1 190 / 171025.1 5.8 2.4
2017-Mar-20 00:00N 53°36' W 131°06'9 9.3 140 / 141025.2 6.5 1.8
2017-Mar-19 23:00N 53°30' W 130°54'9 9.3 150 / 131025.2 6.9 1.1
2017-Mar-19 22:00N 53°24' W 130°42'1414.0 150 / 111025.1 6.2 0.4
2017-Mar-19 21:00N 53°12' W 130°30'9 9.4 160 / 91025.0 5.8 0.3
2017-Mar-19 20:00N 53°06' W 130°18'9 9.4 160 / 41024.4 5.3-0.4
2017-Mar-19 19:00N 53°00' W 130°06'9 9.4 090 / 51023.8 5.1 1.1
2017-Mar-19 18:00N 52°54' W 129°54'7 7.0 350 / 21022.8 5.0-0.4
2017-Mar-19 17:00N 52°48' W 129°48'4 3.6 320 / 71021.5 5.1 0.4
2017-Mar-19 16:00N 52°48' W 129°42'9 9.4 300 / 101020.1 5.0 0.7
2017-Mar-19 15:00N 52°54' W 129°30'4 3.6 290 / 151018.6 4.7 0.5
2017-Mar-19 14:00N 52°54' W 129°24'7 7.0 300 / 171017.2 4.0 1.5
2017-Mar-19 13:00N 53°00' W 129°18'7 7.0 280 / 161015.4 3.9 1.6
2017-Mar-19 12:00N 53°06' W 129°12'7 7.0 220 / 231013.0 5.6 0.5
2017-Mar-19 11:00N 53°12' W 129°06'6 6.0 200 / 221012.3 5.2 1.2
2017-Mar-19 10:00N 53°18' W 129°06'7 7.0 170 / 101012.0 3.8 1.3
2017-Mar-19 09:00N 53°24' W 129°12'0 0.0 200 / 161011.0 3.0 1.1
2017-Mar-19 08:00N 53°24' W 129°12'0 0.0 170 / 171011.1 3.9 0.8
2017-Mar-19 07:00N 53°24' W 129°12'0 0.0 160 / 161011.4 3.6 1.1
2017-Mar-19 06:00N 53°24' W 129°12'0 0.0 180 / 161010.5 3.5 1.1
2017-Mar-19 05:00N 53°24' W 129°12'0 0.0 160 / 191009.9 2.2 1.3
2017-Mar-19 04:00N 53°24' W 129°12'0 0.0 160 / 191009.3 1.7 1.2
2017-Mar-19 03:00N 53°24' W 129°12'0 0.0 180 / 161009.3 4.2-1.3
2017-Mar-19 02:00N 53°24' W 129°12'6 6.0 190 / 151009.0 4.4-0.7
2017-Mar-19 01:00N 53°18' W 129°12'7 7.2 170 / 121008.8 4.6 0.3
2017-Mar-19 00:00N 53°18' W 129°00'7 7.0 010 / 41008.6 2.8 0.6
2017-Mar-18 23:00N 53°24' W 128°54'6 6.0 160 / 181005.8 2.8 0.6
2017-Mar-18 22:00N 53°30' W 128°54'4 3.6 020 / 41007.1 2.1 0.6
2017-Mar-18 21:00N 53°30' W 128°48'0 0.0 330 / 21006.5 2.2 1.3
2017-Mar-18 20:00N 53°30' W 128°48'0 0.0 150 / 11005.8 2.3 0.7
2017-Mar-18 19:00N 53°30' W 128°48'0 0.0 1005.6 2.5 0.8
2017-Mar-18 18:00N 53°30' W 128°48'4 3.6 070 / 21005.4 1.2 0.5
2017-Mar-18 17:00N 53°30' W 128°54'7 7.1 260 / 31004.6 1.6 0.4
2017-Mar-18 16:00N 53°30' W 129°06'7 7.0 300 / 61003.9 1.4-0.4
2017-Mar-18 15:00N 53°24' W 129°12'0 0.0 110 / 71003.6 2.6-0.7
2017-Mar-18 14:00N 53°24' W 129°12'0 0.0 180 / 101003.7 2.7 0.2
2017-Mar-18 13:00N 53°24' W 129°12'0 0.0 180 / 101003.4 2.3 0.6
2017-Mar-18 12:00N 53°24' W 129°12'0 0.0 170 / 101003.1 1.5 0.7
2017-Mar-18 11:00N 53°24' W 129°12'0 0.0 160 / 111003.0 1.8 0.3
2017-Mar-18 10:00N 53°24' W 129°12'0 0.0 170 / 31003.3 2.7 0.1
2017-Mar-18 09:00N 53°24' W 129°12'0 0.0 160 / 61003.8 2.7 0.1
2017-Mar-18 08:00N 53°24' W 129°12'0 0.0 280 / 31004.1 1.5 0.5
2017-Mar-18 07:00N 53°24' W 129°12'0 0.0 220 / 31004.1 1.4 0.4
2017-Mar-18 06:00N 53°24' W 129°12'0 0.0 170 / 71004.2 1.7 0.1
2017-Mar-18 05:00N 53°24' W 129°12'0 0.0 200 / 51004.5 1.2 0.7
2017-Mar-18 04:00N 53°24' W 129°12'0 0.0 150 / 31004.7 1.1 0.1
2017-Mar-18 03:00N 53°24' W 129°12'6 6.0 160 / 151004.7 2.0 0.7
2017-Mar-18 02:00N 53°18' W 129°12'7 7.0 140 / 131005.0 3.8 0.3
2017-Mar-18 01:00N 53°12' W 129°06'6 6.0 100 / 131005.4 1.8 1.0
2017-Mar-18 00:00N 53°18' W 129°06'6 6.0 050 / 21005.7 2.1 1.0
2017-Mar-17 23:00N 53°12' W 129°06'7 7.0 210 / 121005.8 1.9 0.8
2017-Mar-17 22:00N 53°06' W 129°12'1312.5 160 / 161006.0 4.3 1.6
2017-Mar-17 21:00N 52°54' W 129°18'9 9.4 150 / 121006.6 3.7 2.3
2017-Mar-17 20:00N 53°00' W 129°30'1312.5 160 / 111007.0 2.6 2.0
2017-Mar-17 19:00N 53°12' W 129°36'7 7.0 190 / 81006.4 1.6 1.2
2017-Mar-17 18:00N 53°18' W 129°42'9 9.3 130 / 101006.6 3.6 1.4
2017-Mar-17 17:00N 53°24' W 129°54'7 7.0 150 / 131006.3 2.9 1.1
2017-Mar-17 16:00N 53°30' W 130°00'0 0.0 130 / 101007.4 2.8 1.4
2017-Mar-17 15:00N 53°30' W 130°00'0 0.0 120 / 91007.1 2.7 1.4
2017-Mar-17 14:00N 53°30' W 130°00'0 0.0 150 / 71006.9 2.9 1.6
2017-Mar-17 13:00N 53°30' W 130°00'0 0.0 170 / 41006.9 2.5 1.3
2017-Mar-17 12:00N 53°30' W 130°00'0 0.0 160 / 101006.7 4.4 1.8
2017-Mar-17 11:00N 53°30' W 130°00'0 0.0 140 / 141006.9 3.9 2.4
2017-Mar-17 10:00N 53°30' W 130°00'0 0.0 140 / 141007.4 3.0 1.8
2017-Mar-17 09:00N 53°30' W 130°00'0 0.0 140 / 161008.1 4.1 2.4
2017-Mar-17 08:00N 53°30' W 130°00'0 0.0 160 / 131009.5 3.6 2.2
2017-Mar-17 07:00N 53°30' W 130°00'0 0.0 130 / 221008.9 3.1 2.0
2017-Mar-17 06:00N 53°30' W 130°00'0 0.0 120 / 171009.7 2.6 1.6
2017-Mar-17 05:00N 53°30' W 130°00'0 0.0 150 / 151010.0 2.5 1.7
2017-Mar-17 04:00N 53°30' W 130°00'0 0.0 140 / 121010.6 3.2 2.3
2017-Mar-17 03:00N 53°30' W 130°00'0 0.0 170 / 81011.2 2.1 1.6
2017-Mar-17 02:00N 53°30' W 130°00'0 0.0 110 / 91011.3 1.4 1.0
2017-Mar-17 01:00N 53°30' W 130°00'0 0.0 170 / 111012.0 3.0 2.0
2017-Mar-17 00:00N 53°30' W 130°00'0 0.0 130 / 191012.7 2.3 1.3
2017-Mar-16 23:00N 53°30' W 130°00'0 0.0 150 / 161013.3 3.3 1.9
2017-Mar-16 22:00N 53°30' W 130°00'0 0.0 120 / 131013.5 4.0 1.1
2017-Mar-16 21:00N 53°30' W 130°00'0 0.0 140 / 241014.1 3.6 1.3
2017-Mar-16 20:00N 53°30' W 130°00'0 0.0 110 / 91014.3 3.4 1.5
2017-Mar-16 19:00N 53°30' W 130°00'0 0.0 130 / 181013.7 3.9 1.2
2017-Mar-16 18:00N 53°30' W 130°00'145190.2 120 / 81013.6 3.9 1.6
2017-Mar-16 17:14N 51°29' W 127°51'145605.0
2017-Mar-16 17:00N 53°30' W 130°00'153181.6 130 / 121013.0 3.1 1.2
2017-Mar-16 16:09N 51°18' W 127°53'153983.8
2017-Mar-16 16:00N 53°30' W 130°00'159362.3 140 / 91012.3 3.2 1.2
2017-Mar-16 15:33N 51°12' W 127°52'159283.4
2017-Mar-16 15:00N 53°30' W 130°00'169386.4 130 / 71011.4 2.9 0.7
2017-Mar-16 14:33N 51°01' W 127°47'169301.9
2017-Mar-16 14:00N 53°30' W 130°00'179408.7 140 / 81010.8 3.1 1.3
2017-Mar-16 13:33N 50°54' W 127°37'179318.6
2017-Mar-16 13:00N 53°30' W 130°00'188428.1 150 / 111009.9 3.0 0.9
2017-Mar-16 12:33N 50°49' W 127°23'188334.9
2017-Mar-16 12:00N 53°30' W 130°00'0 0.0 120 / 71009.3 2.6 0.4
2017-Mar-16 11:00N 53°30' W 130°00'0 0.0 130 / 101008.4 3.0 1.9
2017-Mar-16 10:00N 53°30' W 130°00'0 0.0 130 / 91007.6 2.4 1.5
2017-Mar-16 09:00N 53°30' W 130°00'0 0.0 140 / 141007.0 2.2 1.7
2017-Mar-16 08:00N 53°30' W 130°00'0 0.0 130 / 201006.4 1.6 1.1
2017-Mar-16 07:00N 53°30' W 130°00'0 0.0 140 / 211005.8 1.8 1.2
2017-Mar-16 06:00N 53°30' W 130°00'0 0.0 150 / 181005.5 2.8 1.6
2017-Mar-16 05:00N 53°30' W 130°00'255585.4 120 / 101005.3 3.6 1.8
2017-Mar-16 04:33N 50°19' W 125°25'255452.2
2017-Mar-16 04:00N 53°30' W 130°00'266612.3 110 / 131005.1 3.5 1.4
2017-Mar-16 03:33N 50°08' W 125°21'266468.8
2017-Mar-16 03:00N 53°30' W 130°00'275634.4 130 / 91005.2 3.5 1.7
2017-Mar-16 02:34N 50°00' W 125°13'275485.1
2017-Mar-16 02:00N 53°30' W 130°00'285649.9 130 / 111005.0 3.4 2.1
2017-Mar-16 01:33N 49°53' W 125°02'285507.8
2017-Mar-16 01:00N 53°30' W 130°00'296682.7 150 / 161004.9 4.1 1.4
2017-Mar-16 00:33N 49°45' W 124°50'296522.6
2017-Mar-16 00:00N 53°30' W 130°00'307708.6 150 / 141004.9 4.4 1.7
2017-Mar-15 23:34N 49°37' W 124°38'307541.9
2017-Mar-15 23:00N 53°30' W 130°00'318733.7 150 / 131004.9 4.0 2.0
2017-Mar-15 22:33N 49°30' W 124°25'318562.3
2017-Mar-15 22:00N 53°30' W 130°00'330760.2 140 / 121005.4 3.1 2.0
2017-Mar-15 21:33N 49°23' W 124°11'330582.0
2017-Mar-15 21:00N 53°30' W 130°00'340784.8 140 / 191005.4 3.3 2.0
2017-Mar-15 20:33N 49°17' W 123°55'340600.9
2017-Mar-15 20:00N 53°30' W 130°00'351808.9 150 / 181004.4 3.4 1.9
2017-Mar-15 19:34N 49°12' W 123°41'362638.1
2017-Mar-15 19:00N 53°42' W 130°06'370854.8 130 / 111005.9 2.5 1.6
2017-Mar-15 18:34N 49°05' W 123°32'377665.6
2017-Mar-15 18:00N 53°48' W 130°12'383885.0 160 / 101005.6 4.0 1.8
2017-Mar-15 17:34N 49°00' W 123°25'390688.7
2017-Mar-15 17:00N 53°54' W 130°18'399918.9 170 / 81005.9 3.5 1.6
2017-Mar-15 16:33N 48°53' W 123°18'401710.1
2017-Mar-15 16:00N 54°00' W 130°12'406925.1 170 / 171005.7 4.4 1.6
2017-Mar-15 15:33N 48°45' W 123°21'415740.0
2017-Mar-15 15:00N 54°06' W 130°24'417957.3 180 / 151005.4 5.0 1.0
2017-Mar-15 14:33N 48°39' W 123°29'419742.8
2017-Mar-15 14:00N 54°06' W 130°30'420575.4 160 / 191004.9 5.1 1.6
2017-Mar-15 13:16N 48°39' W 123°27'4201555.7
2017-Mar-15 13:00N 54°06' W 130°30'420875.6 160 / 181005.0 5.5 1.1
2017-Mar-15 12:31N 48°39' W 123°27'420807.4
2017-Mar-15 12:00N 54°06' W 130°30'420793.4 160 / 141005.5 5.3 1.8
2017-Mar-15 11:28N 48°39' W 123°27'420892.7
2017-Mar-15 11:00N 54°06' W 130°30'420875.1 180 / 71006.1 4.3 1.4
2017-Mar-15 10:31N 48°39' W 123°27'420807.8
2017-Mar-15 10:00N 54°06' W 130°30'420875.6 150 / 161006.3 5.0 1.7
2017-Mar-15 09:31N 48°39' W 123°27'420807.4
2017-Mar-15 09:00N 54°06' W 130°30'420793.0 150 / 81006.6 4.9 2.2
2017-Mar-15 08:28N 48°39' W 123°27'420893.2
2017-Mar-15 08:00N 54°06' W 130°30'420875.6 160 / 91006.4 4.8 2.4
2017-Mar-15 07:31N 48°39' W 123°27'420807.4
2017-Mar-15 07:00N 54°06' W 130°30'420875.1 180 / 81005.9 4.5 2.4
2017-Mar-15 06:31N 48°39' W 123°27'420807.8
2017-Mar-15 06:00N 54°06' W 130°30'420875.6 180 / 121005.2 4.9 2.7
2017-Mar-15 05:31N 48°39' W 123°27'420807.4
2017-Mar-15 05:00N 54°06' W 130°30'420876.6 180 / 131004.4 5.3 2.9
2017-Mar-15 04:31N 48°39' W 123°27'420806.5
2017-Mar-15 04:00N 54°06' W 130°30'420793.0 180 / 121003.4 5.0 2.7
2017-Mar-15 03:28N 48°39' W 123°27'420893.2
2017-Mar-15 03:00N 54°06' W 130°30'420724.6 180 / 111002.5 5.3 3.4
2017-Mar-15 02:25N 48°39' W 123°27'420999.5
2017-Mar-15 02:00N 54°06' W 130°30'420875.6 150 / 51001.9 4.7 3.2
2017-Mar-15 01:31N 48°39' W 123°27'420807.4
2017-Mar-15 01:00N 54°06' W 130°30'420875.6 140 / 111000.8 4.1 2.6
2017-Mar-15 00:31N 48°39' W 123°27'415798.4
2017-Mar-15 00:00N 54°06' W 130°18'415867.4 140 / 71000.2 3.7 2.7
2017-Mar-14 23:31N 48°39' W 123°27'404775.3
2017-Mar-14 23:00N 53°54' W 130°12'404842.6 180 / 12998.5 3.8 2.8
2017-Mar-14 22:31N 48°39' W 123°27'418802.4
2017-Mar-14 22:00N 54°06' W 130°24'418870.7 240 / 13996.6 3.8 2.6
2017-Mar-14 21:31N 48°39' W 123°27'418803.4
2017-Mar-14 21:00N 54°00' W 130°36'418871.3 240 / 15994.6 3.4 2.5
2017-Mar-14 20:31N 48°39' W 123°27'418804.4
2017-Mar-14 20:00N 53°54' W 130°48'418872.9 270 / 14993.3 2.0 1.7
2017-Mar-14 19:31N 48°39' W 123°27'421808.7
2017-Mar-14 19:00N 53°54' W 130°54'421878.0 300 / 21991.3 1.9 1.5
2017-Mar-14 18:31N 48°39' W 123°27'410787.5
2017-Mar-14 18:00N 53°42' W 130°48'410856.0 170 / 29993.3 7.3 6.4
2017-Mar-14 17:31N 48°39' W 123°27'405777.0
2017-Mar-14 17:00N 53°42' W 130°36'405845.5 150 / 24993.5 7.4 6.8
2017-Mar-14 16:31N 48°39' W 123°27'396759.2
2017-Mar-14 16:00N 53°36' W 130°24'396747.2 140 / 15996.1 7.9 5.6
2017-Mar-14 15:28N 48°39' W 123°27'384815.7
2017-Mar-14 15:00N 53°30' W 130°06'384800.2 140 / 15997.9 6.9 6.3
2017-Mar-14 14:31N 48°39' W 123°27'381733.1
2017-Mar-14 14:00N 53°30' W 130°00'381795.0 150 / 19998.9 7.4 6.7
2017-Mar-14 13:31N 48°39' W 123°27'381733.1
2017-Mar-14 13:00N 53°30' W 130°00'381720.4 150 / 211000.2 7.3 6.9
2017-Mar-14 12:28N 48°39' W 123°27'381810.5
2017-Mar-14 12:00N 53°30' W 130°00'381795.1 150 / 201001.4 7.1 6.7
2017-Mar-14 11:31N 48°39' W 123°27'381733.1
2017-Mar-14 11:00N 53°30' W 130°00'   150 / 201002.6 7.1 6.7
Track history (hours):
 
Tides and Currents Weather Stations Pressure Air Temp Water Temp Dewpoint Dewpoint Depression Visibility Wind Speed Wind Dir Waves Ship Positions

Oceanographic research ship John P. Tully (Canada)

Detailed information on ship capabilities available from University of Delaware's Ocean Information Center.

Last reported at 2017-Mar-24 11:00 UTC. Time now 2017-Mar-24 12:17 UTC.
Position N 53°12' W 129°36'.

Length 68.9 m; beam 14.5 m; draft 4.5 m.

MMSI: 316114000.

Wind from 080 at 25 knots

Barometer 999.9 mb
Air temperature 5.4 ° C
Dewpoint 3.3 ° C

Date/timePositionNaut miles runAvg speedWind from/ knotsBaromVisibWave heightAir tempDewpointWater temp
2017-Mar-24 11:00N 53°12' W 129°36'9 9.4 080 / 25999.9 5.4 3.3
2017-Mar-24 10:00N 53°18' W 129°48'7 7.0 090 / 221000.6 5.1 3.3
2017-Mar-24 09:00N 53°24' W 129°54'9 9.3 110 / 151001.4 4.9 2.8
2017-Mar-24 08:00N 53°30' W 130°06'9 9.3 130 / 141001.5 4.7 2.9
2017-Mar-24 07:00N 53°36' W 130°18'9 9.3 110 / 131001.7 4.6 3.5
2017-Mar-24 06:00N 53°42' W 130°30'9 9.3 070 / 141002.0 5.1 3.4
2017-Mar-24 05:00N 53°48' W 130°42'9 9.3 060 / 151003.5 4.4 2.9
2017-Mar-24 04:00N 53°54' W 130°54'9 9.3 060 / 151004.3 4.3 2.3
2017-Mar-24 03:00N 54°00' W 131°06'7 7.0 070 / 181005.1 5.4 2.5
2017-Mar-24 02:00N 54°06' W 131°12'9 9.2 100 / 201005.4 5.9 1.8
2017-Mar-24 01:00N 54°12' W 131°24'1212.1 100 / 121006.6 6.0 2.4
2017-Mar-24 00:00N 54°18' W 131°42'7 7.0 110 / 151007.2 5.3 3.1
2017-Mar-23 23:00N 54°18' W 131°54'1110.5 130 / 171007.4 5.7 2.8
2017-Mar-23 22:00N 54°18' W 132°12'1110.5 120 / 151007.7 5.8 2.1
2017-Mar-23 21:00N 54°18' W 132°30'9 9.2 120 / 131008.1 5.3 1.4
2017-Mar-23 20:00N 54°24' W 132°42'7 7.0 140 / 161007.9 4.7 1.1
2017-Mar-23 19:00N 54°24' W 132°54'1413.9 130 / 111008.2 5.2 1.5
2017-Mar-23 18:00N 54°12' W 132°42'7 7.0 140 / 101008.0 4.4 1.4
2017-Mar-23 17:00N 54°12' W 132°30'1110.5 170 / 71007.9 3.1 0.3
2017-Mar-23 16:00N 54°12' W 132°12'1110.5 180 / 91007.5 2.4 0.7
2017-Mar-23 15:00N 54°12' W 131°54'7 7.0 210 / 71007.3 2.5 0.6
2017-Mar-23 14:00N 54°06' W 131°48'0 0.0 200 / 71007.0 1.8 1.1
2017-Mar-23 13:00N 54°06' W 131°48'0 0.0 200 / 61006.3 2.6 2.0
2017-Mar-23 12:00N 54°06' W 131°48'0 0.0 140 / 31005.8 2.3 1.6
2017-Mar-23 11:00N 54°06' W 131°48'0 0.0 130 / 71005.3 2.6 1.5
2017-Mar-23 10:00N 54°06' W 131°48'0 0.0 140 / 91004.8 3.0 1.9
2017-Mar-23 09:00N 54°06' W 131°48'0 0.0 130 / 61004.4 3.7 1.9
2017-Mar-23 08:00N 54°06' W 131°48'0 0.0 130 / 51004.0 3.6 1.6
2017-Mar-23 07:00N 54°06' W 131°48'0 0.0 170 / 81003.6 3.4 0.6
2017-Mar-23 06:00N 54°06' W 131°48'0 0.0 160 / 71003.3 3.6 1.2
2017-Mar-23 05:00N 54°06' W 131°48'0 0.0 140 / 101002.9 3.2 1.2
2017-Mar-23 04:00N 54°06' W 131°48'0 0.0 160 / 141002.4 3.5 1.2
2017-Mar-23 03:00N 54°06' W 131°48'1312.5 170 / 151001.4 4.6 1.4
2017-Mar-23 02:00N 54°18' W 131°42'7 6.9 190 / 91000.8 3.9 2.1
2017-Mar-23 01:00N 54°24' W 131°36'0 0.0 220 / 161000.2 4.2 2.5
2017-Mar-23 00:00N 54°24' W 131°36'7 6.9 140 / 161000.2 5.4 3.6
2017-Mar-22 23:00N 54°18' W 131°30'0 0.0 160 / 101000.3 4.9 2.7
2017-Mar-22 22:00N 54°18' W 131°30'0 0.0 140 / 9999.8 5.3 3.8
2017-Mar-22 21:00N 54°18' W 131°30'4 3.5 150 / 71000.0 5.1 2.9
2017-Mar-22 20:00N 54°18' W 131°24'4 3.5 160 / 8999.4 4.1 2.6
2017-Mar-22 19:00N 54°18' W 131°18'7 6.9 160 / 7999.2 3.8 2.4
2017-Mar-22 18:00N 54°12' W 131°12'9 9.2 100 / 5998.9 3.1 1.8
2017-Mar-22 17:00N 54°06' W 131°00'1413.9 280 / 1998.7 3.1 1.9
2017-Mar-22 16:00N 53°54' W 130°48'4 3.5 340 / 2998.4 2.6 1.9
2017-Mar-22 15:00N 53°54' W 130°42'4 3.5 290 / 4998.3 3.0 1.9
2017-Mar-22 14:00N 53°54' W 130°48'4 3.5 320 / 6998.2 3.1 1.8
2017-Mar-22 13:00N 53°54' W 130°54'6 6.0 310 / 2998.2 3.3 1.9
2017-Mar-22 12:00N 53°48' W 130°54'7 7.0 020 / 2998.5 3.7 2.6
2017-Mar-22 11:00N 53°42' W 130°48'6 6.0 070 / 5998.9 4.1 3.2
2017-Mar-22 10:00N 53°36' W 130°48'7 7.0 080 / 5999.3 4.0 3.1
2017-Mar-22 09:00N 53°30' W 130°42'1212.0 050 / 5999.3 3.8 2.9
2017-Mar-22 08:00N 53°18' W 130°42'7 7.0 050 / 7999.6 3.9 2.8
2017-Mar-22 07:00N 53°12' W 130°36'7 7.0 050 / 61000.0 4.2 2.4
2017-Mar-22 06:00N 53°06' W 130°30'1212.0 060 / 71000.2 4.3 2.7
2017-Mar-22 05:00N 52°54' W 130°30'7 7.0 050 / 91000.0 4.4 2.8
2017-Mar-22 04:00N 52°48' W 130°36'7 7.0 060 / 71000.6 4.4 2.8
2017-Mar-22 03:00N 52°42' W 130°42'7 7.0 040 / 81000.7 4.3 2.2
2017-Mar-22 02:00N 52°36' W 130°48'1312.5 050 / 101000.8 4.3 2.5
2017-Mar-22 01:00N 52°24' W 130°54'1111.0 060 / 81001.5 4.3 2.4
2017-Mar-22 00:00N 52°24' W 131°12'6 6.0 110 / 81002.2 5.2 2.7
2017-Mar-21 23:00N 52°18' W 131°12'0 0.0 360 / 81002.4 5.4 3.3
2017-Mar-21 22:00N 52°18' W 131°12'7 7.3 360 / 71003.0 5.3 3.0
2017-Mar-21 21:00N 52°18' W 131°00'7 7.0 360 / 131002.9 5.2 3.5
2017-Mar-21 20:00N 52°12' W 130°54'6 6.0 350 / 161002.7 5.2 3.5
2017-Mar-21 19:00N 52°06' W 130°54'6 6.0 360 / 201003.1 5.1 3.4
2017-Mar-21 18:00N 52°12' W 130°54'0 0.0 010 / 171003.9 5.2 3.4
2017-Mar-21 17:00N 52°12' W 130°54'7 7.0 350 / 191004.3 5.4 3.8
2017-Mar-21 16:00N 52°06' W 130°48'0 0.0 350 / 221004.0 5.5 3.8
2017-Mar-21 15:00N 52°06' W 130°48'0 0.0 350 / 201005.3 5.6 4.1
2017-Mar-21 14:00N 52°06' W 130°48'0 0.0 350 / 211005.9 5.5 3.9
2017-Mar-21 13:00N 52°06' W 130°48'0 0.0 360 / 201007.1 5.5 4.1
2017-Mar-21 12:00N 52°06' W 130°48'7 7.0 350 / 191007.9 5.6 4.2
2017-Mar-21 11:00N 52°12' W 130°42'4 3.7 360 / 161009.0 6.3 3.9
2017-Mar-21 10:00N 52°12' W 130°36'7 7.0 360 / 131010.2 6.4 3.7
2017-Mar-21 09:00N 52°18' W 130°30'0 0.0 360 / 131010.8 6.5 3.8
2017-Mar-21 08:00N 52°18' W 130°30'0 0.0 360 / 141011.4 6.3 2.7
2017-Mar-21 07:00N 52°18' W 130°30'0 0.0 350 / 171011.9 6.1 2.1
2017-Mar-21 06:00N 52°18' W 130°30'0 0.0 350 / 171012.8 6.0 1.1
2017-Mar-21 05:00N 52°18' W 130°30'0 0.0 350 / 161013.1 5.9 1.6
2017-Mar-21 04:00N 52°18' W 130°30'6 6.0 350 / 161013.7 5.8 1.1
2017-Mar-21 03:00N 52°12' W 130°30'7 7.0 360 / 151013.7 5.8 1.2
2017-Mar-21 02:00N 52°06' W 130°36'1212.0 360 / 161014.1 5.7 1.1
2017-Mar-21 01:00N 51°54' W 130°36'0 0.0 010 / 191014.3 5.7 1.6
2017-Mar-21 00:00N 51°54' W 130°36'4 3.7 010 / 171015.9 6.2 2.0
2017-Mar-20 23:00N 51°54' W 130°42'10 9.5 020 / 201015.9 5.5 1.5
2017-Mar-20 22:00N 51°48' W 130°54'7 7.1 020 / 191017.6 5.8 2.0
2017-Mar-20 21:00N 51°54' W 130°48'6 6.0 020 / 151018.8 5.6 1.6
2017-Mar-20 20:00N 52°00' W 130°48'1212.0 010 / 141019.9 5.5 0.9
2017-Mar-20 19:00N 52°12' W 130°48'7 7.0 010 / 121020.7 5.3 1.2
2017-Mar-20 18:00N 52°18' W 130°54'1414.1 030 / 121021.3 5.1 1.1
2017-Mar-20 17:00N 52°30' W 131°06'7 7.0 030 / 111022.1 4.9 1.8
2017-Mar-20 16:00N 52°36' W 131°12'7 7.0 060 / 111022.7 5.1 0.8
2017-Mar-20 15:00N 52°42' W 131°18'4 3.6 050 / 101023.5 4.2 1.9
2017-Mar-20 14:00N 52°42' W 131°12'7 7.3 350 / 111023.9 4.8 2.9
2017-Mar-20 13:00N 52°42' W 131°00'4 3.6 080 / 21024.6 5.3 0.7
2017-Mar-20 12:00N 52°42' W 130°54'7 7.3 130 / 41025.3 5.4 0.4
2017-Mar-20 11:00N 52°42' W 130°42'7 7.0 120 / 71025.9 5.3 1.3
2017-Mar-20 10:00N 52°48' W 130°36'6 6.0 110 / 111026.1 5.2 1.1
2017-Mar-20 09:00N 52°54' W 130°36'4 3.6 150 / 81026.4 5.6 0.4
2017-Mar-20 08:00N 52°54' W 130°30'1212.0 160 / 91026.6 5.6 0.8
2017-Mar-20 07:00N 53°06' W 130°30'4 3.6 180 / 121026.7 5.9 1.6
2017-Mar-20 06:00N 53°06' W 130°36'6 6.0 160 / 81026.6 5.9 1.4
2017-Mar-20 05:00N 53°12' W 130°36'7 7.0 170 / 81026.4 5.8 1.4
2017-Mar-20 04:00N 53°18' W 130°42'6 6.0 210 / 71026.2 5.7 1.6
2017-Mar-20 03:00N 53°24' W 130°42'1212.0 240 / 81025.8 5.2 2.4
2017-Mar-20 02:00N 53°36' W 130°42'7 7.1 140 / 141024.8 5.5 1.6
2017-Mar-20 01:00N 53°36' W 130°54'7 7.1 190 / 171025.1 5.8 2.4
2017-Mar-20 00:00N 53°36' W 131°06'9 9.3 140 / 141025.2 6.5 1.8
2017-Mar-19 23:00N 53°30' W 130°54'9 9.3 150 / 131025.2 6.9 1.1
2017-Mar-19 22:00N 53°24' W 130°42'1414.0 150 / 111025.1 6.2 0.4
2017-Mar-19 21:00N 53°12' W 130°30'9 9.4 160 / 91025.0 5.8 0.3
2017-Mar-19 20:00N 53°06' W 130°18'9 9.4 160 / 41024.4 5.3-0.4
2017-Mar-19 19:00N 53°00' W 130°06'9 9.4 090 / 51023.8 5.1 1.1
2017-Mar-19 18:00N 52°54' W 129°54'7 7.0 350 / 21022.8 5.0-0.4
2017-Mar-19 17:00N 52°48' W 129°48'4 3.6 320 / 71021.5 5.1 0.4
2017-Mar-19 16:00N 52°48' W 129°42'9 9.4 300 / 101020.1 5.0 0.7
2017-Mar-19 15:00N 52°54' W 129°30'4 3.6 290 / 151018.6 4.7 0.5
2017-Mar-19 14:00N 52°54' W 129°24'7 7.0 300 / 171017.2 4.0 1.5
2017-Mar-19 13:00N 53°00' W 129°18'7 7.0 280 / 161015.4 3.9 1.6
2017-Mar-19 12:00N 53°06' W 129°12'7 7.0 220 / 231013.0 5.6 0.5
2017-Mar-19 11:00N 53°12' W 129°06'6 6.0 200 / 221012.3 5.2 1.2
2017-Mar-19 10:00N 53°18' W 129°06'7 7.0 170 / 101012.0 3.8 1.3
2017-Mar-19 09:00N 53°24' W 129°12'0 0.0 200 / 161011.0 3.0 1.1
2017-Mar-19 08:00N 53°24' W 129°12'0 0.0 170 / 171011.1 3.9 0.8
2017-Mar-19 07:00N 53°24' W 129°12'0 0.0 160 / 161011.4 3.6 1.1
2017-Mar-19 06:00N 53°24' W 129°12'0 0.0 180 / 161010.5 3.5 1.1
2017-Mar-19 05:00N 53°24' W 129°12'0 0.0 160 / 191009.9 2.2 1.3
2017-Mar-19 04:00N 53°24' W 129°12'0 0.0 160 / 191009.3 1.7 1.2
2017-Mar-19 03:00N 53°24' W 129°12'0 0.0 180 / 161009.3 4.2-1.3
2017-Mar-19 02:00N 53°24' W 129°12'6 6.0 190 / 151009.0 4.4-0.7
2017-Mar-19 01:00N 53°18' W 129°12'7 7.2 170 / 121008.8 4.6 0.3
2017-Mar-19 00:00N 53°18' W 129°00'7 7.0 010 / 41008.6 2.8 0.6
2017-Mar-18 23:00N 53°24' W 128°54'6 6.0 160 / 181005.8 2.8 0.6
2017-Mar-18 22:00N 53°30' W 128°54'4 3.6 020 / 41007.1 2.1 0.6
2017-Mar-18 21:00N 53°30' W 128°48'0 0.0 330 / 21006.5 2.2 1.3
2017-Mar-18 20:00N 53°30' W 128°48'0 0.0 150 / 11005.8 2.3 0.7
2017-Mar-18 19:00N 53°30' W 128°48'0 0.0 1005.6 2.5 0.8
2017-Mar-18 18:00N 53°30' W 128°48'4 3.6 070 / 21005.4 1.2 0.5
2017-Mar-18 17:00N 53°30' W 128°54'7 7.1 260 / 31004.6 1.6 0.4
2017-Mar-18 16:00N 53°30' W 129°06'7 7.0 300 / 61003.9 1.4-0.4
2017-Mar-18 15:00N 53°24' W 129°12'0 0.0 110 / 71003.6 2.6-0.7
2017-Mar-18 14:00N 53°24' W 129°12'0 0.0 180 / 101003.7 2.7 0.2
2017-Mar-18 13:00N 53°24' W 129°12'0 0.0 180 / 101003.4 2.3 0.6
2017-Mar-18 12:00N 53°24' W 129°12'0 0.0 170 / 101003.1 1.5 0.7
2017-Mar-18 11:00N 53°24' W 129°12'0 0.0 160 / 111003.0 1.8 0.3
2017-Mar-18 10:00N 53°24' W 129°12'0 0.0 170 / 31003.3 2.7 0.1
2017-Mar-18 09:00N 53°24' W 129°12'0 0.0 160 / 61003.8 2.7 0.1
2017-Mar-18 08:00N 53°24' W 129°12'0 0.0 280 / 31004.1 1.5 0.5
2017-Mar-18 07:00N 53°24' W 129°12'0 0.0 220 / 31004.1 1.4 0.4
2017-Mar-18 06:00N 53°24' W 129°12'0 0.0 170 / 71004.2 1.7 0.1
2017-Mar-18 05:00N 53°24' W 129°12'0 0.0 200 / 51004.5 1.2 0.7
2017-Mar-18 04:00N 53°24' W 129°12'0 0.0 150 / 31004.7 1.1 0.1
2017-Mar-18 03:00N 53°24' W 129°12'6 6.0 160 / 151004.7 2.0 0.7
2017-Mar-18 02:00N 53°18' W 129°12'7 7.0 140 / 131005.0 3.8 0.3
2017-Mar-18 01:00N 53°12' W 129°06'6 6.0 100 / 131005.4 1.8 1.0
2017-Mar-18 00:00N 53°18' W 129°06'6 6.0 050 / 21005.7 2.1 1.0
2017-Mar-17 23:00N 53°12' W 129°06'7 7.0 210 / 121005.8 1.9 0.8
2017-Mar-17 22:00N 53°06' W 129°12'1312.5 160 / 161006.0 4.3 1.6
2017-Mar-17 21:00N 52°54' W 129°18'9 9.4 150 / 121006.6 3.7 2.3
2017-Mar-17 20:00N 53°00' W 129°30'1312.5 160 / 111007.0 2.6 2.0
2017-Mar-17 19:00N 53°12' W 129°36'7 7.0 190 / 81006.4 1.6 1.2
2017-Mar-17 18:00N 53°18' W 129°42'9 9.3 130 / 101006.6 3.6 1.4
2017-Mar-17 17:00N 53°24' W 129°54'7 7.0 150 / 131006.3 2.9 1.1
2017-Mar-17 16:00N 53°30' W 130°00'0 0.0 130 / 101007.4 2.8 1.4
2017-Mar-17 15:00N 53°30' W 130°00'0 0.0 120 / 91007.1 2.7 1.4
2017-Mar-17 14:00N 53°30' W 130°00'0 0.0 150 / 71006.9 2.9 1.6
2017-Mar-17 13:00N 53°30' W 130°00'0 0.0 170 / 41006.9 2.5 1.3
2017-Mar-17 12:00N 53°30' W 130°00'0 0.0 160 / 101006.7 4.4 1.8
2017-Mar-17 11:00N 53°30' W 130°00'0 0.0 140 / 141006.9 3.9 2.4
2017-Mar-17 10:00N 53°30' W 130°00'0 0.0 140 / 141007.4 3.0 1.8
2017-Mar-17 09:00N 53°30' W 130°00'0 0.0 140 / 161008.1 4.1 2.4
2017-Mar-17 08:00N 53°30' W 130°00'0 0.0 160 / 131009.5 3.6 2.2
2017-Mar-17 07:00N 53°30' W 130°00'0 0.0 130 / 221008.9 3.1 2.0
2017-Mar-17 06:00N 53°30' W 130°00'0 0.0 120 / 171009.7 2.6 1.6
2017-Mar-17 05:00N 53°30' W 130°00'0 0.0 150 / 151010.0 2.5 1.7
2017-Mar-17 04:00N 53°30' W 130°00'0 0.0 140 / 121010.6 3.2 2.3
2017-Mar-17 03:00N 53°30' W 130°00'0 0.0 170 / 81011.2 2.1 1.6
2017-Mar-17 02:00N 53°30' W 130°00'0 0.0 110 / 91011.3 1.4 1.0
2017-Mar-17 01:00N 53°30' W 130°00'0 0.0 170 / 111012.0 3.0 2.0
2017-Mar-17 00:00N 53°30' W 130°00'0 0.0 130 / 191012.7 2.3 1.3
2017-Mar-16 23:00N 53°30' W 130°00'0 0.0 150 / 161013.3 3.3 1.9
2017-Mar-16 22:00N 53°30' W 130°00'0 0.0 120 / 131013.5 4.0 1.1
2017-Mar-16 21:00N 53°30' W 130°00'0 0.0 140 / 241014.1 3.6 1.3
2017-Mar-16 20:00N 53°30' W 130°00'0 0.0 110 / 91014.3 3.4 1.5
2017-Mar-16 19:00N 53°30' W 130°00'0 0.0 130 / 181013.7 3.9 1.2
2017-Mar-16 18:00N 53°30' W 130°00'145190.2 120 / 81013.6 3.9 1.6
2017-Mar-16 17:14N 51°29' W 127°51'145605.0
2017-Mar-16 17:00N 53°30' W 130°00'153181.6 130 / 121013.0 3.1 1.2
2017-Mar-16 16:09N 51°18' W 127°53'153983.8
2017-Mar-16 16:00N 53°30' W 130°00'159362.3 140 / 91012.3 3.2 1.2
2017-Mar-16 15:33N 51°12' W 127°52'159283.4
2017-Mar-16 15:00N 53°30' W 130°00'169386.4 130 / 71011.4 2.9 0.7
2017-Mar-16 14:33N 51°01' W 127°47'169301.9
2017-Mar-16 14:00N 53°30' W 130°00'179408.7 140 / 81010.8 3.1 1.3
2017-Mar-16 13:33N 50°54' W 127°37'179318.6
2017-Mar-16 13:00N 53°30' W 130°00'188428.1 150 / 111009.9 3.0 0.9
2017-Mar-16 12:33N 50°49' W 127°23'188334.9
2017-Mar-16 12:00N 53°30' W 130°00'0 0.0 120 / 71009.3 2.6 0.4
2017-Mar-16 11:00N 53°30' W 130°00'0 0.0 130 / 101008.4 3.0 1.9
2017-Mar-16 10:00N 53°30' W 130°00'0 0.0 130 / 91007.6 2.4 1.5
2017-Mar-16 09:00N 53°30' W 130°00'0 0.0 140 / 141007.0 2.2 1.7
2017-Mar-16 08:00N 53°30' W 130°00'0 0.0 130 / 201006.4 1.6 1.1
2017-Mar-16 07:00N 53°30' W 130°00'0 0.0 140 / 211005.8 1.8 1.2
2017-Mar-16 06:00N 53°30' W 130°00'0 0.0 150 / 181005.5 2.8 1.6
2017-Mar-16 05:00N 53°30' W 130°00'255585.4 120 / 101005.3 3.6 1.8
2017-Mar-16 04:33N 50°19' W 125°25'255452.2
2017-Mar-16 04:00N 53°30' W 130°00'266612.3 110 / 131005.1 3.5 1.4
2017-Mar-16 03:33N 50°08' W 125°21'266468.8
2017-Mar-16 03:00N 53°30' W 130°00'275634.4 130 / 91005.2 3.5 1.7
2017-Mar-16 02:34N 50°00' W 125°13'275485.1
2017-Mar-16 02:00N 53°30' W 130°00'285649.9 130 / 111005.0 3.4 2.1
2017-Mar-16 01:33N 49°53' W 125°02'285507.8
2017-Mar-16 01:00N 53°30' W 130°00'296682.7 150 / 161004.9 4.1 1.4
2017-Mar-16 00:33N 49°45' W 124°50'296522.6
2017-Mar-16 00:00N 53°30' W 130°00'307708.6 150 / 141004.9 4.4 1.7
2017-Mar-15 23:34N 49°37' W 124°38'307541.9
2017-Mar-15 23:00N 53°30' W 130°00'318733.7 150 / 131004.9 4.0 2.0
2017-Mar-15 22:33N 49°30' W 124°25'318562.3
2017-Mar-15 22:00N 53°30' W 130°00'330760.2 140 / 121005.4 3.1 2.0
2017-Mar-15 21:33N 49°23' W 124°11'330582.0
2017-Mar-15 21:00N 53°30' W 130°00'340784.8 140 / 191005.4 3.3 2.0
2017-Mar-15 20:33N 49°17' W 123°55'340600.9
2017-Mar-15 20:00N 53°30' W 130°00'351808.9 150 / 181004.4 3.4 1.9
2017-Mar-15 19:34N 49°12' W 123°41'362638.1
2017-Mar-15 19:00N 53°42' W 130°06'370854.8 130 / 111005.9 2.5 1.6
2017-Mar-15 18:34N 49°05' W 123°32'377665.6
2017-Mar-15 18:00N 53°48' W 130°12'383885.0 160 / 101005.6 4.0 1.8
2017-Mar-15 17:34N 49°00' W 123°25'390688.7
2017-Mar-15 17:00N 53°54' W 130°18'399918.9 170 / 81005.9 3.5 1.6
2017-Mar-15 16:33N 48°53' W 123°18'401710.1
2017-Mar-15 16:00N 54°00' W 130°12'406925.1 170 / 171005.7 4.4 1.6
2017-Mar-15 15:33N 48°45' W 123°21'415740.0
2017-Mar-15 15:00N 54°06' W 130°24'417957.3 180 / 151005.4 5.0 1.0
2017-Mar-15 14:33N 48°39' W 123°29'419742.8
2017-Mar-15 14:00N 54°06' W 130°30'420575.4 160 / 191004.9 5.1 1.6
2017-Mar-15 13:16N 48°39' W 123°27'4201555.7
2017-Mar-15 13:00N 54°06' W 130°30'420875.6 160 / 181005.0 5.5 1.1
2017-Mar-15 12:31N 48°39' W 123°27'420807.4
2017-Mar-15 12:00N 54°06' W 130°30'420793.4 160 / 141005.5 5.3 1.8
2017-Mar-15 11:28N 48°39' W 123°27'420892.7
2017-Mar-15 11:00N 54°06' W 130°30'420875.1 180 / 71006.1 4.3 1.4
2017-Mar-15 10:31N 48°39' W 123°27'420807.8
2017-Mar-15 10:00N 54°06' W 130°30'420875.6 150 / 161006.3 5.0 1.7
2017-Mar-15 09:31N 48°39' W 123°27'420807.4
2017-Mar-15 09:00N 54°06' W 130°30'420793.0 150 / 81006.6 4.9 2.2
2017-Mar-15 08:28N 48°39' W 123°27'420893.2
2017-Mar-15 08:00N 54°06' W 130°30'420875.6 160 / 91006.4 4.8 2.4
2017-Mar-15 07:31N 48°39' W 123°27'420807.4
2017-Mar-15 07:00N 54°06' W 130°30'420875.1 180 / 81005.9 4.5 2.4
2017-Mar-15 06:31N 48°39' W 123°27'420807.8
2017-Mar-15 06:00N 54°06' W 130°30'420875.6 180 / 121005.2 4.9 2.7
2017-Mar-15 05:31N 48°39' W 123°27'420807.4
2017-Mar-15 05:00N 54°06' W 130°30'420876.6 180 / 131004.4 5.3 2.9
2017-Mar-15 04:31N 48°39' W 123°27'420806.5
2017-Mar-15 04:00N 54°06' W 130°30'420793.0 180 / 121003.4 5.0 2.7
2017-Mar-15 03:28N 48°39' W 123°27'420893.2
2017-Mar-15 03:00N 54°06' W 130°30'420724.6 180 / 111002.5 5.3 3.4
2017-Mar-15 02:25N 48°39' W 123°27'420999.5
2017-Mar-15 02:00N 54°06' W 130°30'420875.6 150 / 51001.9 4.7 3.2
2017-Mar-15 01:31N 48°39' W 123°27'420807.4
2017-Mar-15 01:00N 54°06' W 130°30'420875.6 140 / 111000.8 4.1 2.6
2017-Mar-15 00:31N 48°39' W 123°27'415798.4
2017-Mar-15 00:00N 54°06' W 130°18'415867.4 140 / 71000.2 3.7 2.7
2017-Mar-14 23:31N 48°39' W 123°27'404775.3
2017-Mar-14 23:00N 53°54' W 130°12'404842.6 180 / 12998.5 3.8 2.8
2017-Mar-14 22:31N 48°39' W 123°27'418802.4
2017-Mar-14 22:00N 54°06' W 130°24'418870.7 240 / 13996.6 3.8 2.6
2017-Mar-14 21:31N 48°39' W 123°27'418803.4
2017-Mar-14 21:00N 54°00' W 130°36'418871.3 240 / 15994.6 3.4 2.5
2017-Mar-14 20:31N 48°39' W 123°27'418804.4
2017-Mar-14 20:00N 53°54' W 130°48'418872.9 270 / 14993.3 2.0 1.7
2017-Mar-14 19:31N 48°39' W 123°27'421808.7
2017-Mar-14 19:00N 53°54' W 130°54'421878.0 300 / 21991.3 1.9 1.5
2017-Mar-14 18:31N 48°39' W 123°27'410787.5
2017-Mar-14 18:00N 53°42' W 130°48'410856.0 170 / 29993.3 7.3 6.4
2017-Mar-14 17:31N 48°39' W 123°27'405777.0
2017-Mar-14 17:00N 53°42' W 130°36'405845.5 150 / 24993.5 7.4 6.8
2017-Mar-14 16:31N 48°39' W 123°27'396759.2
2017-Mar-14 16:00N 53°36' W 130°24'396747.2 140 / 15996.1 7.9 5.6
2017-Mar-14 15:28N 48°39' W 123°27'384815.7
2017-Mar-14 15:00N 53°30' W 130°06'384800.2 140 / 15997.9 6.9 6.3
2017-Mar-14 14:31N 48°39' W 123°27'381733.1
2017-Mar-14 14:00N 53°30' W 130°00'381795.0 150 / 19998.9 7.4 6.7
2017-Mar-14 13:31N 48°39' W 123°27'381733.1
2017-Mar-14 13:00N 53°30' W 130°00'381720.4 150 / 211000.2 7.3 6.9
2017-Mar-14 12:28N 48°39' W 123°27'381810.5
2017-Mar-14 12:00N 53°30' W 130°00'381795.1 150 / 201001.4 7.1 6.7
2017-Mar-14 11:31N 48°39' W 123°27'381733.1
2017-Mar-14 11:00N 53°30' W 130°00'   150 / 201002.6 7.1 6.7

Dump ship's entire track history